Time,TemperatureF,DewpointF,PressureIn,WindDirection,WindDirectionDegrees,WindSpeedMPH,WindSpeedGustMPH,Humidity,HourlyPrecipIn,Conditions,Clouds,dailyrainin,SoftwareType,DateUTC
2013-02-19 00:02:00,41.5,29.4,30.03,ENE,68,0.0,0.8,62,0.00,,,0.00,WUHU216HW,2013-02-18 23:02:00,
2013-02-19 00:07:00,41.1,29.1,30.03,East,90,0.0,0.0,62,0.00,,,0.00,WUHU216HW,2013-02-18 23:07:00,
2013-02-19 00:12:00,41.0,28.5,30.02,NE,45,0.0,0.0,61,0.00,,,0.00,WUHU216HW,2013-02-18 23:12:00,
2013-02-19 00:17:00,40.8,28.4,30.02,East,90,0.8,0.8,61,0.00,,,0.00,WUHU216HW,2013-02-18 23:17:00,
2013-02-19 00:22:00,40.8,28.4,30.03,ESE,113,0.0,0.8,61,0.00,,,0.00,WUHU216HW,2013-02-18 23:22:00,
2013-02-19 00:27:00,40.8,28.4,30.03,ESE,113,0.0,0.0,61,0.00,,,0.00,WUHU216HW,2013-02-18 23:27:00,
2013-02-19 00:32:00,40.4,28.0,30.03,ESE,113,0.0,0.0,61,0.00,,,0.00,WUHU216HW,2013-02-18 23:32:00,
2013-02-19 00:37:00,40.2,27.8,30.02,NNE,23,0.0,0.0,61,0.00,,,0.00,WUHU216HW,2013-02-18 23:37:00,
2013-02-19 00:42:00,40.1,27.6,30.02,ESE,113,0.0,0.0,61,0.00,,,0.00,WUHU216HW,2013-02-18 23:42:00,
2013-02-19 00:47:00,40.1,27.3,30.02,ESE,113,0.0,0.0,60,0.00,,,0.00,WUHU216HW,2013-02-18 23:47:00,
2013-02-19 00:52:00,40.2,27.5,30.02,SW,225,0.0,1.3,60,0.00,,,0.00,WUHU216HW,2013-02-18 23:52:00,
2013-02-19 00:57:00,40.1,27.3,30.02,NNE,23,0.0,1.3,60,0.00,,,0.00,WUHU216HW,2013-02-18 23:57:00,
2013-02-19 01:02:00,39.9,26.8,30.02,ENE,68,0.0,0.0,59,0.00,,,0.00,WUHU216HW,2013-02-19 00:02:00,
2013-02-19 01:07:00,39.9,25.8,30.02,East,90,0.0,0.6,57,0.00,,,0.00,WUHU216HW,2013-02-19 00:07:00,
2013-02-19 01:12:00,39.9,26.2,30.02,ESE,113,0.0,0.6,58,0.00,,,0.00,WUHU216HW,2013-02-19 00:12:00,
2013-02-19 01:17:00,39.9,26.2,30.02,SSE,158,0.0,0.0,58,0.00,,,0.00,WUHU216HW,2013-02-19 00:17:00,
2013-02-19 01:22:00,40.1,25.9,30.02,SSW,203,1.7,2.0,57,0.00,,,0.00,WUHU216HW,2013-02-19 00:22:00,
2013-02-19 01:27:00,40.2,26.1,30.02,SSE,158,0.0,2.0,57,0.00,,,0.00,WUHU216HW,2013-02-19 00:27:00,
2013-02-19 01:32:00,40.1,25.9,30.02,ESE,113,0.0,1.5,57,0.00,,,0.00,WUHU216HW,2013-02-19 00:32:00,
2013-02-19 01:37:00,40.1,26.4,30.02,NE,45,0.0,1.5,58,0.00,,,0.00,WUHU216HW,2013-02-19 00:37:00,
2013-02-19 01:43:00,39.7,26.5,30.02,NNW,338,0.0,0.0,59,0.00,,,0.00,WUHU216HW,2013-02-19 00:43:00,
2013-02-19 01:48:00,39.5,26.3,30.02,NNW,338,0.0,0.0,59,0.00,,,0.00,WUHU216HW,2013-02-19 00:48:00,
2013-02-19 01:53:00,39.3,26.1,30.02,NW,315,0.0,0.0,59,0.00,,,0.00,WUHU216HW,2013-02-19 00:53:00,
2013-02-19 01:58:00,39.5,25.8,30.02,WSW,248,0.0,1.3,58,0.00,,,0.00,WUHU216HW,2013-02-19 00:58:00,
2013-02-19 02:03:00,39.7,26.0,30.02,WSW,248,0.0,1.3,58,0.00,,,0.00,WUHU216HW,2013-02-19 01:03:00,
2013-02-19 02:10:00,39.3,25.7,30.02,ESE,113,0.0,0.0,58,0.00,,,0.00,WUHU216HW,2013-02-19 01:10:00,
2013-02-19 02:15:00,39.5,25.4,30.02,North,0,0.0,0.0,57,0.00,,,0.00,WUHU216HW,2013-02-19 01:15:00,
2013-02-19 02:20:00,39.7,25.6,30.02,SW,225,0.0,1.1,57,0.00,,,0.00,WUHU216HW,2013-02-19 01:20:00,
2013-02-19 02:25:00,39.7,25.6,30.02,West,270,0.0,1.1,57,0.00,,,0.00,WUHU216HW,2013-02-19 01:25:00,
2013-02-19 02:30:00,39.7,25.6,30.02,NNE,23,0.0,0.0,57,0.00,,,0.00,WUHU216HW,2013-02-19 01:30:00,
2013-02-19 02:35:00,39.7,25.6,30.02,NNE,23,0.0,0.0,57,0.00,,,0.00,WUHU216HW,2013-02-19 01:35:00,
2013-02-19 02:40:00,39.7,25.6,30.02,SE,135,0.0,0.0,57,0.00,,,0.00,WUHU216HW,2013-02-19 01:40:00,
2013-02-19 02:45:00,39.9,26.2,30.02,SW,225,1.5,1.7,58,0.00,,,0.00,WUHU216HW,2013-02-19 01:45:00,
2013-02-19 02:51:00,39.9,26.6,30.02,North,0,0.0,1.7,59,0.00,,,0.00,WUHU216HW,2013-02-19 01:51:00,
2013-02-19 02:56:00,39.9,26.6,30.02,NNW,338,0.0,0.0,59,0.00,,,0.00,WUHU216HW,2013-02-19 01:56:00,
2013-02-19 03:01:00,39.9,27.1,30.02,NNW,338,0.0,0.0,60,0.00,,,0.00,WUHU216HW,2013-02-19 02:01:00,
2013-02-19 03:06:00,39.5,27.1,30.02,NNW,338,0.0,0.0,61,0.00,,,0.00,WUHU216HW,2013-02-19 02:06:00,
2013-02-19 03:11:00,39.3,26.9,30.02,East,100,1.4,1.5,61,0.00,,,0.00,WUHU216HW,2013-02-19 02:11:00,
2013-02-19 03:16:00,39.3,26.9,30.02,SSE,158,0.0,2.2,61,0.00,,,0.00,WUHU216HW,2013-02-19 02:16:00,
2013-02-19 03:21:00,39.3,27.3,30.02,ENE,68,0.0,2.2,62,0.00,,,0.00,WUHU216HW,2013-02-19 02:21:00,
2013-02-19 03:26:00,39.0,27.0,30.01,ESE,113,2.4,2.4,62,0.00,,,0.00,WUHU216HW,2013-02-19 02:26:00,
2013-02-19 03:31:00,38.8,26.8,30.01,SE,135,1.3,2.4,62,0.00,,,0.00,WUHU216HW,2013-02-19 02:31:00,
2013-02-19 03:36:00,39.0,27.0,30.02,East,90,2.2,2.2,62,0.00,,,0.00,WUHU216HW,2013-02-19 02:36:00,
2013-02-19 03:41:00,38.8,27.2,30.01,East,100,1.8,2.2,63,0.00,,,0.00,WUHU216HW,2013-02-19 02:41:00,
2013-02-19 03:46:00,38.8,26.8,30.01,ESE,113,2.2,2.2,62,0.00,,,0.00,WUHU216HW,2013-02-19 02:46:00,
2013-02-19 03:52:00,38.8,26.8,30.02,ESE,113,0.0,2.2,62,0.00,,,0.00,WUHU216HW,2013-02-19 02:52:00,
2013-02-19 03:57:00,38.8,26.8,30.01,SE,135,0.0,1.5,62,0.00,,,0.00,WUHU216HW,2013-02-19 02:57:00,
2013-02-19 04:02:00,38.8,26.8,30.01,ESE,113,1.1,1.1,62,0.00,,,0.00,WUHU216HW,2013-02-19 03:02:00,
2013-02-19 04:08:00,38.8,27.2,30.01,East,90,1.7,2.0,63,0.00,,,0.00,WUHU216HW,2013-02-19 03:08:00,
2013-02-19 04:13:00,38.4,26.9,30.01,ENE,68,0.0,2.2,63,0.00,,,0.00,WUHU216HW,2013-02-19 03:13:00,
2013-02-19 04:18:00,38.1,26.7,30.01,NE,45,0.0,2.2,63,0.00,,,0.00,WUHU216HW,2013-02-19 03:18:00,
2013-02-19 04:23:00,37.9,26.7,30.01,NE,45,0.0,0.0,64,0.00,,,0.00,WUHU216HW,2013-02-19 03:23:00,
2013-02-19 04:28:00,37.4,26.6,30.01,North,0,0.0,0.0,65,0.00,,,0.00,WUHU216HW,2013-02-19 03:28:00,
2013-02-19 04:33:00,37.0,26.3,30.01,NNW,338,0.0,0.0,65,0.00,,,0.00,WUHU216HW,2013-02-19 03:33:00,
2013-02-19 04:38:00,36.3,25.6,30.01,NNW,338,0.0,1.5,65,0.00,,,0.00,WUHU216HW,2013-02-19 03:38:00,
2013-02-19 04:43:00,35.9,24.9,30.01,West,270,0.0,1.5,64,0.00,,,0.00,WUHU216HW,2013-02-19 03:43:00,
2013-02-19 04:48:00,35.9,24.9,30.02,WSW,248,0.0,0.0,64,0.00,,,0.00,WUHU216HW,2013-02-19 03:48:00,
2013-02-19 04:53:00,36.1,24.7,30.01,WSW,248,0.0,0.0,63,0.00,,,0.00,WUHU216HW,2013-02-19 03:53:00,
2013-02-19 04:58:00,36.1,24.3,30.01,WSW,248,0.0,0.0,62,0.00,,,0.00,WUHU216HW,2013-02-19 03:58:00,
2013-02-19 05:03:00,36.3,24.1,30.01,WSW,248,0.0,0.8,61,0.00,,,0.00,WUHU216HW,2013-02-19 04:03:00,
2013-02-19 05:08:00,36.3,24.1,30.01,North,0,0.0,1.3,61,0.00,,,0.00,WUHU216HW,2013-02-19 04:08:00,
2013-02-19 05:13:00,35.9,23.8,30.01,North,0,0.0,1.3,61,0.00,,,0.00,WUHU216HW,2013-02-19 04:13:00,
2013-02-19 05:18:00,35.7,23.7,30.02,NE,45,0.0,0.0,61,0.00,,,0.00,WUHU216HW,2013-02-19 04:18:00,
2013-02-19 05:23:00,35.7,23.7,30.01,NE,45,0.0,0.0,61,0.00,,,0.00,WUHU216HW,2013-02-19 04:23:00,
2013-02-19 05:28:00,35.9,23.5,30.01,SE,135,0.0,1.3,60,0.00,,,0.00,WUHU216HW,2013-02-19 04:28:00,
2013-02-19 05:33:00,36.1,23.2,30.01,ESE,113,0.0,1.3,59,0.00,,,0.00,WUHU216HW,2013-02-19 04:33:00,
2013-02-19 05:38:00,36.3,23.2,30.01,ESE,113,2.3,2.6,59,0.00,,,0.00,WUHU216HW,2013-02-19 04:38:00,
2013-02-19 05:43:00,36.3,22.9,30.01,ESE,113,0.8,2.6,58,0.00,,,0.00,WUHU216HW,2013-02-19 04:43:00,
2013-02-19 05:48:00,36.3,23.3,30.01,North,0,0.0,1.5,59,0.00,,,0.00,WUHU216HW,2013-02-19 04:48:00,
2013-02-19 05:53:00,36.1,23.2,30.01,North,0,0.0,1.5,59,0.00,,,0.00,WUHU216HW,2013-02-19 04:53:00,
2013-02-19 05:58:00,35.9,23.5,30.01,NNW,338,0.0,0.0,60,0.00,,,0.00,WUHU216HW,2013-02-19 04:58:00,
2013-02-19 06:00:00,35.9,23.5,30.01,NW,315,0.0,0.0,60,0.00,,,0.00,WUHU216HW,2013-02-19 05:00:00,
2013-02-19 06:01:00,35.9,23.0,30.01,NW,315,0.0,0.0,59,0.00,,,0.00,WUHU216HW,2013-02-19 05:01:00,
2013-02-19 06:06:00,35.7,23.3,30.01,NNW,338,0.0,0.0,60,0.00,,,0.00,WUHU216HW,2013-02-19 05:06:00,
2013-02-19 06:11:00,35.7,23.3,30.01,NNE,23,0.0,0.0,60,0.00,,,0.00,WUHU216HW,2013-02-19 05:11:00,
2013-02-19 06:16:00,35.7,22.9,30.01,East,90,1.3,1.7,59,0.00,,,0.00,WUHU216HW,2013-02-19 05:16:00,
2013-02-19 06:21:00,36.1,22.3,30.01,SE,135,0.0,1.7,57,0.00,,,0.00,WUHU216HW,2013-02-19 05:21:00,
2013-02-19 06:26:00,35.9,23.0,30.01,NW,315,0.0,1.1,59,0.00,,,0.00,WUHU216HW,2013-02-19 05:26:00,
2013-02-19 06:31:00,35.4,23.0,30.01,SW,225,1.4,1.5,60,0.00,,,0.00,WUHU216HW,2013-02-19 05:31:00,
2013-02-19 06:36:00,35.4,23.0,30.01,SW,225,1.3,1.5,60,0.00,,,0.00,WUHU216HW,2013-02-19 05:36:00,
2013-02-19 06:41:00,35.4,23.0,30.01,WSW,248,1.5,1.7,60,0.00,,,0.00,WUHU216HW,2013-02-19 05:41:00,
2013-02-19 06:46:00,35.2,22.8,30.01,NW,315,0.0,1.7,60,0.00,,,0.00,WUHU216HW,2013-02-19 05:46:00,
2013-02-19 06:51:00,34.7,22.8,30.01,ESE,113,1.5,1.7,61,0.00,,,0.00,WUHU216HW,2013-02-19 05:51:00,
2013-02-19 06:56:00,34.5,22.4,30.01,East,90,1.5,1.5,61,0.00,,,0.00,WUHU216HW,2013-02-19 05:56:00,
2013-02-19 07:01:00,34.8,22.4,30.01,East,90,0.0,1.5,60,0.00,,,0.00,WUHU216HW,2013-02-19 06:01:00,
2013-02-19 07:06:00,35.0,22.2,30.01,SE,134,2.1,2.2,59,0.00,,,0.00,WUHU216HW,2013-02-19 06:06:00,
2013-02-19 07:11:00,35.4,22.1,30.01,SE,135,2.2,2.4,58,0.00,,,0.00,WUHU216HW,2013-02-19 06:11:00,
2013-02-19 07:17:00,35.7,22.4,30.01,NE,45,0.0,2.4,58,0.00,,,0.00,WUHU216HW,2013-02-19 06:17:00,
2013-02-19 07:22:00,35.7,23.3,30.01,North,0,1.1,2.0,60,0.00,,,0.00,WUHU216HW,2013-02-19 06:22:00,
2013-02-19 07:26:00,35.4,23.3,30.01,North,0,0.0,1.7,61,0.00,,,0.00,WUHU216HW,2013-02-19 06:26:00,
2013-02-19 07:31:00,35.4,23.3,30.01,North,0,0.0,0.0,61,0.00,,,0.00,WUHU216HW,2013-02-19 06:31:00,
2013-02-19 07:36:00,35.4,23.3,30.01,NW,315,1.7,1.7,61,0.00,,,0.00,WUHU216HW,2013-02-19 06:36:00,
2013-02-19 07:42:00,35.4,23.3,30.01,WSW,248,0.0,1.7,61,0.00,,,0.00,WUHU216HW,2013-02-19 06:42:00,
2013-02-19 07:47:00,35.4,23.3,30.02,WSW,248,0.0,0.0,61,0.00,,,0.00,WUHU216HW,2013-02-19 06:47:00,
2013-02-19 07:52:00,35.7,23.3,30.02,WSW,248,1.3,1.3,61,0.00,,,0.00,WUHU216HW,2013-02-19 06:52:00,
2013-02-19 07:57:00,35.9,23.8,30.02,WNW,293,0.8,1.3,61,0.00,,,0.00,WUHU216HW,2013-02-19 06:57:00,
2013-02-19 08:02:00,36.1,24.0,30.02,WNW,293,0.8,1.3,61,0.00,,,0.00,WUHU216HW,2013-02-19 07:02:00,
2013-02-19 08:07:00,37.0,24.4,30.02,South,180,0.0,1.1,60,0.00,,,0.00,WUHU216HW,2013-02-19 07:07:00,
2013-02-19 08:12:00,38.8,26.8,30.02,South,180,0.0,0.0,62,0.00,,,0.00,WUHU216HW,2013-02-19 07:12:00,
2013-02-19 08:17:00,38.4,27.6,30.02,SSW,203,0.0,0.0,65,0.00,,,0.00,WUHU216HW,2013-02-19 07:17:00,
2013-02-19 08:22:00,39.0,28.1,30.02,SSW,203,0.0,0.0,64,0.00,,,0.00,WUHU216HW,2013-02-19 07:22:00,
2013-02-19 08:27:00,41.1,30.6,30.02,SW,225,0.0,0.0,66,0.00,,,0.00,WUHU216HW,2013-02-19 07:27:00,
2013-02-19 08:32:00,41.3,32.3,30.03,West,270,0.0,1.1,70,0.00,,,0.00,WUHU216HW,2013-02-19 07:32:00,
2013-02-19 08:37:00,42.9,34.6,30.03,SW,225,0.0,1.1,72,0.00,,,0.00,WUHU216HW,2013-02-19 07:37:00,
2013-02-19 08:42:00,44.7,37.6,30.03,ESE,113,0.0,0.0,76,0.00,,,0.00,WUHU216HW,2013-02-19 07:42:00,
2013-02-19 08:48:00,44.6,37.8,30.03,South,180,0.0,1.1,77,0.00,,,0.00,WUHU216HW,2013-02-19 07:48:00,
2013-02-19 08:53:00,43.8,37.1,30.03,South,180,0.8,1.5,77,0.00,,,0.00,WUHU216HW,2013-02-19 07:53:00,
2013-02-19 08:57:00,44.2,37.4,30.04,SSW,203,0.0,1.5,77,0.00,,,0.00,WUHU216HW,2013-02-19 07:57:00,
2013-02-19 09:03:00,44.0,36.9,30.03,SSW,203,1.5,2.2,76,0.00,,,0.00,WUHU216HW,2013-02-19 08:03:00,
2013-02-19 09:08:00,43.8,36.7,30.03,SSW,210,1.3,2.2,76,0.00,,,0.00,WUHU216HW,2013-02-19 08:08:00,
2013-02-19 09:12:00,44.2,36.7,30.03,SW,216,2.1,2.4,75,0.00,,,0.00,WUHU216HW,2013-02-19 08:12:00,
2013-02-19 09:17:00,44.7,37.3,30.03,SSW,203,1.1,2.4,75,0.00,,,0.00,WUHU216HW,2013-02-19 08:17:00,
2013-02-19 09:23:00,45.1,37.3,30.03,SW,225,3.1,3.1,74,0.00,,,0.00,WUHU216HW,2013-02-19 08:23:00,
2013-02-19 09:28:00,45.6,37.5,30.03,South,180,2.2,3.1,73,0.00,,,0.00,WUHU216HW,2013-02-19 08:28:00,
2013-02-19 09:33:00,46.0,36.8,30.03,SSW,203,2.9,3.5,70,0.00,,,0.00,WUHU216HW,2013-02-19 08:33:00,
2013-02-19 09:38:00,46.2,36.6,30.03,South,180,3.5,3.5,69,0.00,,,0.00,WUHU216HW,2013-02-19 08:38:00,
2013-02-19 09:43:00,46.9,36.5,30.03,SSW,193,1.8,3.5,67,0.00,,,0.00,WUHU216HW,2013-02-19 08:43:00,
2013-02-19 09:48:00,47.8,36.9,30.03,SSE,158,2.4,3.1,66,0.00,,,0.00,WUHU216HW,2013-02-19 08:48:00,
2013-02-19 09:53:00,49.1,37.4,30.03,SSW,203,0.8,2.6,64,0.00,,,0.00,WUHU216HW,2013-02-19 08:53:00,
2013-02-19 09:58:00,49.8,36.8,30.04,SSE,158,2.0,2.0,61,0.00,,,0.00,WUHU216HW,2013-02-19 08:58:00,
2013-02-19 10:03:00,50.3,37.0,30.04,SSE,158,1.3,2.0,60,0.00,,,0.00,WUHU216HW,2013-02-19 09:03:00,
2013-02-19 10:08:00,51.0,36.3,30.04,SSW,203,0.8,1.7,57,0.00,,,0.00,WUHU216HW,2013-02-19 09:08:00,
2013-02-19 10:13:00,51.4,35.7,30.03,South,180,1.3,1.3,56,0.00,,,0.00,WUHU216HW,2013-02-19 09:13:00,
2013-02-19 10:18:00,51.2,35.5,30.04,SSW,203,1.5,1.5,55,0.00,,,0.00,WUHU216HW,2013-02-19 09:18:00,
2013-02-19 10:23:00,50.7,35.0,30.04,SSW,203,1.3,1.5,55,0.00,,,0.00,WUHU216HW,2013-02-19 09:23:00,
2013-02-19 10:28:00,50.7,35.0,30.03,South,180,2.4,2.4,55,0.00,,,0.00,WUHU216HW,2013-02-19 09:28:00,
2013-02-19 10:33:00,50.7,34.9,30.04,SSW,203,0.6,2.4,55,0.00,,,0.00,WUHU216HW,2013-02-19 09:33:00,
2013-02-19 10:38:00,50.9,34.3,30.04,West,270,0.8,2.2,53,0.00,,,0.00,WUHU216HW,2013-02-19 09:38:00,
2013-02-19 10:43:00,51.0,34.0,30.03,NNW,338,0.0,0.8,52,0.00,,,0.00,WUHU216HW,2013-02-19 09:43:00,
2013-02-19 10:48:00,51.0,34.5,30.03,WSW,248,2.6,2.6,53,0.00,,,0.00,WUHU216HW,2013-02-19 09:48:00,
2013-02-19 10:53:00,51.4,34.8,30.03,SSW,203,1.1,2.6,53,0.00,,,0.00,WUHU216HW,2013-02-19 09:53:00,
2013-02-19 10:58:00,53.0,35.3,30.03,ESE,121,1.6,2.0,51,0.00,,,0.00,WUHU216HW,2013-02-19 09:58:00,
2013-02-19 11:03:00,54.3,35.5,30.03,SE,135,1.5,2.0,49,0.00,,,0.00,WUHU216HW,2013-02-19 10:03:00,
2013-02-19 11:08:00,54.3,34.9,30.03,South,180,1.3,1.5,48,0.00,,,0.00,WUHU216HW,2013-02-19 10:08:00,
2013-02-19 11:13:00,54.6,34.7,30.02,East,90,0.6,1.5,47,0.00,,,0.00,WUHU216HW,2013-02-19 10:13:00,
2013-02-19 11:18:00,53.4,32.7,30.03,NNW,338,4.6,4.6,45,0.00,,,0.00,WUHU216HW,2013-02-19 10:18:00,
2013-02-19 11:23:00,51.8,32.2,30.03,North,0,1.5,6.4,47,0.00,,,0.00,WUHU216HW,2013-02-19 10:23:00,
2013-02-19 11:28:00,52.1,32.4,30.02,North,0,6.2,6.4,47,0.00,,,0.00,WUHU216HW,2013-02-19 10:28:00,
2013-02-19 11:33:00,51.6,32.5,30.02,North,350,2.7,6.7,48,0.00,,,0.00,WUHU216HW,2013-02-19 10:33:00,
2013-02-19 11:38:00,51.9,32.2,30.02,ENE,59,2.5,6.7,47,0.00,,,0.00,WUHU216HW,2013-02-19 10:38:00,
2013-02-19 11:43:00,51.8,32.6,30.02,North,0,8.2,9.8,48,0.00,,,0.00,WUHU216HW,2013-02-19 10:43:00,
2013-02-19 11:48:00,51.6,32.5,30.02,ESE,113,2.2,9.8,48,0.00,,,0.00,WUHU216HW,2013-02-19 10:48:00,
2013-02-19 11:53:00,52.3,33.1,30.02,ENE,68,4.1,10.5,48,0.00,,,0.00,WUHU216HW,2013-02-19 10:53:00,
2013-02-19 11:58:00,53.0,33.8,30.02,NNE,23,4.0,10.5,48,0.00,,,0.00,WUHU216HW,2013-02-19 10:58:00,
2013-02-19 12:03:00,52.8,33.0,30.02,NE,45,5.1,6.4,47,0.00,,,0.00,WUHU216HW,2013-02-19 11:03:00,
2013-02-19 12:08:00,52.3,33.1,30.02,NNW,338,5.3,8.9,48,0.00,,,0.00,WUHU216HW,2013-02-19 11:08:00,
2013-02-19 12:13:00,52.3,33.1,30.02,NNE,23,4.9,8.9,48,0.00,,,0.00,WUHU216HW,2013-02-19 11:13:00,
2013-02-19 12:18:00,52.5,32.2,30.02,NW,322,4.7,8.5,46,0.00,,,0.00,WUHU216HW,2013-02-19 11:18:00,
2013-02-19 12:23:00,52.3,32.6,30.02,North,0,3.8,6.9,47,0.00,,,0.00,WUHU216HW,2013-02-19 11:23:00,
2013-02-19 12:28:00,51.9,32.2,30.02,North,0,6.7,9.1,47,0.00,,,0.00,WUHU216HW,2013-02-19 11:28:00,
2013-02-19 12:33:00,51.4,31.8,30.02,NNW,338,6.4,9.1,47,0.00,,,0.00,WUHU216HW,2013-02-19 11:33:00,
2013-02-19 12:38:00,51.6,32.5,30.02,WNW,293,1.5,6.4,48,0.00,,,0.00,WUHU216HW,2013-02-19 11:38:00,
2013-02-19 12:43:00,52.5,32.2,30.01,NNW,334,2.1,3.8,46,0.00,,,0.00,WUHU216HW,2013-02-19 11:43:00,
2013-02-19 12:48:00,53.4,32.4,30.01,WNW,293,3.1,3.1,45,0.00,,,0.00,WUHU216HW,2013-02-19 11:48:00,
2013-02-19 12:53:00,53.4,32.4,30.01,WNW,293,3.1,3.5,45,0.00,,,0.00,WUHU216HW,2013-02-19 11:53:00,
2013-02-19 12:58:00,53.4,32.4,30.01,North,0,0.8,3.5,45,0.00,,,0.00,WUHU216HW,2013-02-19 11:58:00,
2013-02-19 13:03:00,53.4,32.4,30.01,NW,315,2.4,4.0,45,0.00,,,0.00,WUHU216HW,2013-02-19 12:03:00,
2013-02-19 13:08:00,53.2,31.7,30.01,ESE,113,2.6,5.5,44,0.00,,,0.00,WUHU216HW,2013-02-19 12:08:00,
2013-02-19 13:13:00,53.2,31.7,30.01,ENE,78,2.7,5.5,44,0.00,,,0.00,WUHU216HW,2013-02-19 12:13:00,
2013-02-19 13:18:00,53.4,31.9,30.00,NW,315,3.1,3.1,44,0.00,,,0.00,WUHU216HW,2013-02-19 12:18:00,
2013-02-19 13:23:00,53.4,31.3,30.01,NNW,347,1.4,4.0,43,0.00,,,0.00,WUHU216HW,2013-02-19 12:23:00,
2013-02-19 13:28:00,53.6,32.0,30.00,ENE,68,2.0,4.0,44,0.00,,,0.00,WUHU216HW,2013-02-19 12:28:00,
2013-02-19 13:33:00,55.2,34.0,30.00,South,180,0.0,2.0,45,0.00,,,0.00,WUHU216HW,2013-02-19 12:33:00,
2013-02-19 13:38:00,55.2,32.9,29.99,SW,225,2.4,2.4,43,0.00,,,0.00,WUHU216HW,2013-02-19 12:38:00,
2013-02-19 13:43:00,55.2,32.9,29.99,South,180,1.7,3.1,43,0.00,,,0.00,WUHU216HW,2013-02-19 12:43:00,
2013-02-19 13:48:00,56.1,33.8,29.99,WSW,248,1.7,3.1,43,0.00,,,0.00,WUHU216HW,2013-02-19 12:48:00,
2013-02-19 13:53:00,55.4,32.4,29.99,West,270,7.1,7.6,42,0.00,,,0.00,WUHU216HW,2013-02-19 12:53:00,
2013-02-19 13:58:00,54.5,31.7,29.99,West,270,3.3,7.6,42,0.00,,,0.00,WUHU216HW,2013-02-19 12:58:00,
2013-02-19 14:03:00,54.5,32.3,29.99,WSW,248,3.8,7.1,43,0.00,,,0.00,WUHU216HW,2013-02-19 13:03:00,
2013-02-19 14:08:00,54.3,31.6,29.99,NW,315,4.2,4.2,42,0.00,,,0.00,WUHU216HW,2013-02-19 13:08:00,
2013-02-19 14:13:00,55.0,32.2,29.99,ENE,68,0.0,4.2,42,0.00,,,0.00,WUHU216HW,2013-02-19 13:13:00,
2013-02-19 14:18:00,55.7,32.3,29.99,SSE,158,2.2,2.4,41,0.00,,,0.00,WUHU216HW,2013-02-19 13:18:00,
2013-02-19 14:23:00,56.1,32.1,29.99,East,90,3.1,3.1,40,0.00,,,0.00,WUHU216HW,2013-02-19 13:23:00,
2013-02-19 14:28:00,57.0,32.9,29.99,West,270,2.2,3.1,40,0.00,,,0.00,WUHU216HW,2013-02-19 13:28:00,
2013-02-19 14:33:00,56.4,32.9,29.99,SW,225,4.4,5.1,41,0.00,,,0.00,WUHU216HW,2013-02-19 13:33:00,
2013-02-19 14:38:00,55.4,31.6,29.99,WSW,248,3.3,6.0,41,0.00,,,0.00,WUHU216HW,2013-02-19 13:38:00,
2013-02-19 14:43:00,55.5,32.1,29.99,SW,225,6.9,6.9,41,0.00,,,0.00,WUHU216HW,2013-02-19 13:43:00,
2013-02-19 14:48:00,54.8,32.0,29.99,WSW,248,4.0,6.9,42,0.00,,,0.00,WUHU216HW,2013-02-19 13:48:00,
2013-02-19 14:53:00,54.1,32.0,29.98,NE,45,1.7,4.0,43,0.00,,,0.00,WUHU216HW,2013-02-19 13:53:00,
2013-02-19 14:58:00,55.4,32.5,29.98,ENE,68,2.4,2.6,42,0.00,,,0.00,WUHU216HW,2013-02-19 13:58:00,
2013-02-19 15:03:00,55.9,32.5,29.98,WSW,248,1.3,2.4,41,0.00,,,0.00,WUHU216HW,2013-02-19 14:03:00,
2013-02-19 15:09:00,54.3,31.0,29.98,WSW,245,3.7,5.8,41,0.00,,,0.00,WUHU216HW,2013-02-19 14:09:00,
2013-02-19 15:14:00,53.4,31.5,29.98,WNW,293,4.0,5.8,43,0.00,,,0.00,WUHU216HW,2013-02-19 14:14:00,
2013-02-19 15:20:00,53.4,31.9,29.98,SW,218,5.4,7.3,44,0.00,,,0.00,WUHU216HW,2013-02-19 14:20:00,
2013-02-19 15:25:00,53.2,33.4,29.98,South,172,7.7,9.8,47,0.00,,,0.00,WUHU216HW,2013-02-19 14:25:00,
2013-02-19 15:30:00,53.0,33.8,29.98,South,180,5.1,9.8,48,0.00,,,0.00,WUHU216HW,2013-02-19 14:30:00,
2013-02-19 15:35:00,52.8,33.6,29.98,SSW,203,4.4,5.3,48,0.00,,,0.00,WUHU216HW,2013-02-19 14:35:00,
2013-02-19 15:40:00,52.7,33.4,29.98,SW,225,4.6,5.8,48,0.00,,,0.00,WUHU216HW,2013-02-19 14:40:00,
2013-02-19 15:45:00,52.5,34.6,29.98,SW,225,3.8,5.8,49,0.00,,,0.00,WUHU216HW,2013-02-19 14:45:00,
2013-02-19 15:50:00,52.5,34.8,29.98,SSW,203,5.8,7.1,51,0.00,,,0.00,WUHU216HW,2013-02-19 14:50:00,
2013-02-19 15:55:00,52.3,34.7,29.98,SW,225,5.3,7.1,51,0.00,,,0.00,WUHU216HW,2013-02-19 14:55:00,
2013-02-19 16:00:00,52.1,34.1,29.99,SW,217,5.8,7.6,50,0.00,,,0.00,WUHU216HW,2013-02-19 15:00:00,
2013-02-19 16:05:00,52.3,35.1,29.98,South,189,2.0,7.6,52,0.00,,,0.00,WUHU216HW,2013-02-19 15:05:00,
2013-02-19 16:11:00,53.2,35.5,29.98,South,180,3.1,3.1,51,0.00,,,0.00,WUHU216HW,2013-02-19 15:11:00,
2013-02-19 16:16:00,53.7,35.5,29.98,SSW,212,3.5,5.1,50,0.00,,,0.00,WUHU216HW,2013-02-19 15:16:00,
2013-02-19 16:21:00,53.7,35.0,29.98,West,270,5.2,6.0,49,0.00,,,0.00,WUHU216HW,2013-02-19 15:21:00,
2013-02-19 16:26:00,53.7,35.0,29.98,WSW,248,3.5,6.0,49,0.00,,,0.00,WUHU216HW,2013-02-19 15:26:00,
2013-02-19 16:31:00,53.4,34.7,29.98,West,270,2.6,5.1,49,0.00,,,0.00,WUHU216HW,2013-02-19 15:31:00,
2013-02-19 16:36:00,53.4,34.8,29.98,West,270,3.1,5.1,49,0.00,,,0.00,WUHU216HW,2013-02-19 15:36:00,
2013-02-19 16:41:00,53.4,34.7,29.98,NW,305,1.8,4.9,49,0.00,,,0.00,WUHU216HW,2013-02-19 15:41:00,
2013-02-19 16:46:00,53.2,33.9,29.98,SW,229,3.4,5.5,48,0.00,,,0.00,WUHU216HW,2013-02-19 15:46:00,
2013-02-19 16:51:00,53.0,34.3,29.98,West,270,2.2,5.5,49,0.00,,,0.00,WUHU216HW,2013-02-19 15:51:00,
2013-02-19 16:56:00,53.2,34.5,29.98,WSW,248,2.6,4.9,49,0.00,,,0.00,WUHU216HW,2013-02-19 15:56:00,
2013-02-19 17:01:00,52.8,34.2,29.97,SW,225,0.0,3.5,49,0.00,,,0.00,WUHU216HW,2013-02-19 16:01:00,
2013-02-19 17:06:00,52.8,33.6,29.97,WNW,293,3.8,3.8,49,0.00,,,0.00,WUHU216HW,2013-02-19 16:06:00,
2013-02-19 17:11:00,52.5,33.8,29.97,WNW,289,2.3,4.6,49,0.00,,,0.00,WUHU216HW,2013-02-19 16:11:00,
2013-02-19 17:16:00,51.9,33.9,29.97,West,270,2.6,4.6,50,0.00,,,0.00,WUHU216HW,2013-02-19 16:16:00,
2013-02-19 17:21:00,51.4,33.9,29.98,NW,305,3.8,5.5,51,0.00,,,0.00,WUHU216HW,2013-02-19 16:21:00,
2013-02-19 17:26:00,50.9,33.8,29.98,NW,315,1.5,6.4,52,0.00,,,0.00,WUHU216HW,2013-02-19 16:26:00,
2013-02-19 17:31:00,50.5,34.0,29.98,NNW,338,4.4,6.4,52,0.00,,,0.00,WUHU216HW,2013-02-19 16:31:00,
2013-02-19 17:36:00,50.1,33.6,29.98,NNW,330,2.5,6.2,53,0.00,,,0.00,WUHU216HW,2013-02-19 16:36:00,
2013-02-19 17:41:00,49.8,33.3,29.99,NW,315,0.0,6.2,53,0.00,,,0.00,WUHU216HW,2013-02-19 16:41:00,
2013-02-19 17:46:00,49.8,33.3,29.99,East,90,0.0,4.6,53,0.00,,,0.00,WUHU216HW,2013-02-19 16:46:00,
2013-02-19 17:51:00,49.2,33.2,29.99,ESE,113,0.0,1.3,54,0.00,,,0.00,WUHU216HW,2013-02-19 16:51:00,
2013-02-19 17:56:00,49.1,33.5,29.99,East,90,0.0,1.3,55,0.00,,,0.00,WUHU216HW,2013-02-19 16:56:00,
2013-02-19 18:01:00,48.9,33.4,29.99,ENE,68,0.0,0.0,55,0.00,,,0.00,WUHU216HW,2013-02-19 17:01:00,
2013-02-19 18:06:00,48.7,33.6,29.99,ENE,68,1.3,1.5,56,0.00,,,0.00,WUHU216HW,2013-02-19 17:06:00,
2013-02-19 18:11:00,48.3,33.3,30.00,NE,45,1.5,1.5,56,0.00,,,0.00,WUHU216HW,2013-02-19 17:11:00,
2013-02-19 18:16:00,48.3,33.3,30.00,East,90,0.0,1.5,56,0.00,,,0.00,WUHU216HW,2013-02-19 17:16:00,
2013-02-19 18:21:00,48.0,33.9,30.00,East,90,0.8,2.4,58,0.00,,,0.00,WUHU216HW,2013-02-19 17:21:00,
2013-02-19 18:26:00,47.8,33.7,30.00,ENE,68,2.9,2.9,58,0.00,,,0.00,WUHU216HW,2013-02-19 17:26:00,
2013-02-19 18:31:00,47.8,33.7,30.00,ENE,68,5.1,5.1,58,0.00,,,0.00,WUHU216HW,2013-02-19 17:31:00,
2013-02-19 18:36:00,47.4,33.8,30.00,East,90,2.2,5.1,59,0.00,,,0.00,WUHU216HW,2013-02-19 17:36:00,
2013-02-19 18:41:00,47.4,33.8,30.01,SE,135,3.1,4.9,59,0.00,,,0.00,WUHU216HW,2013-02-19 17:41:00,
2013-02-19 18:46:00,47.4,34.3,30.01,NE,38,1.7,3.1,60,0.00,,,0.00,WUHU216HW,2013-02-19 17:46:00,
2013-02-19 18:51:00,47.1,33.9,30.01,ENE,68,2.0,2.2,60,0.00,,,0.00,WUHU216HW,2013-02-19 17:51:00,
2013-02-19 18:56:00,47.1,34.3,30.01,ENE,68,0.0,2.2,61,0.00,,,0.00,WUHU216HW,2013-02-19 17:56:00,
2013-02-19 19:01:00,46.9,34.5,30.01,ENE,68,2.6,2.6,62,0.00,,,0.00,WUHU216HW,2013-02-19 18:01:00,
2013-02-19 19:06:00,46.5,34.2,30.01,East,90,2.7,3.8,62,0.00,,,0.00,WUHU216HW,2013-02-19 18:06:00,
2013-02-19 19:11:00,46.5,34.6,30.01,East,90,2.2,3.8,63,0.00,,,0.00,WUHU216HW,2013-02-19 18:11:00,
2013-02-19 19:17:00,46.5,34.2,30.01,East,90,2.6,4.4,62,0.00,,,0.00,WUHU216HW,2013-02-19 18:17:00,
2013-02-19 19:22:00,46.5,34.6,30.01,NE,45,2.4,4.4,63,0.00,,,0.00,WUHU216HW,2013-02-19 18:22:00,
2013-02-19 19:27:00,46.2,34.6,30.01,NE,45,2.9,3.3,64,0.00,,,0.00,WUHU216HW,2013-02-19 18:27:00,
2013-02-19 19:32:00,46.5,34.6,30.01,ENE,68,4.0,4.6,63,0.00,,,0.00,WUHU216HW,2013-02-19 18:32:00,
2013-02-19 19:37:00,46.4,34.4,30.01,ENE,77,2.5,4.6,63,0.00,,,0.00,WUHU216HW,2013-02-19 18:37:00,
2013-02-19 19:42:00,46.0,34.6,30.01,East,90,2.4,2.9,64,0.00,,,0.00,WUHU216HW,2013-02-19 18:42:00,
2013-02-19 19:47:00,45.6,34.7,30.01,ENE,68,4.6,4.6,65,0.00,,,0.00,WUHU216HW,2013-02-19 18:47:00,
2013-02-19 19:52:00,45.6,34.5,30.01,ESE,113,1.1,4.6,65,0.00,,,0.00,WUHU216HW,2013-02-19 18:52:00,
2013-02-19 19:57:00,45.5,34.7,30.01,ENE,76,3.3,4.0,66,0.00,,,0.00,WUHU216HW,2013-02-19 18:57:00,
2013-02-19 20:02:00,45.3,34.9,30.01,ENE,68,3.2,4.0,67,0.00,,,0.00,WUHU216HW,2013-02-19 19:02:00,
2013-02-19 20:07:00,45.1,34.8,30.02,ESE,113,0.8,3.8,67,0.00,,,0.00,WUHU216HW,2013-02-19 19:07:00,
2013-02-19 20:12:00,44.4,34.1,30.01,East,90,0.0,3.5,67,0.00,,,0.00,WUHU216HW,2013-02-19 19:12:00,
2013-02-19 20:17:00,44.0,34.5,30.01,NE,45,0.8,0.8,69,0.00,,,0.00,WUHU216HW,2013-02-19 19:17:00,
2013-02-19 20:22:00,43.7,34.6,30.01,ENE,68,0.0,0.8,70,0.00,,,0.00,WUHU216HW,2013-02-19 19:22:00,
2013-02-19 20:27:00,43.1,34.4,30.02,North,0,1.3,1.3,71,0.00,,,0.00,WUHU216HW,2013-02-19 19:27:00,
2013-02-19 20:32:00,42.0,34.3,30.02,North,10,1.8,2.0,74,0.00,,,0.00,WUHU216HW,2013-02-19 19:32:00,
2013-02-19 20:37:00,41.3,33.9,30.02,NNE,23,0.0,2.0,75,0.00,,,0.00,WUHU216HW,2013-02-19 19:37:00,
2013-02-19 20:42:00,40.8,33.6,30.02,North,0,0.0,1.5,75,0.00,,,0.00,WUHU216HW,2013-02-19 19:42:00,
2013-02-19 20:47:00,40.6,33.2,30.02,North,0,0.0,0.6,75,0.00,,,0.00,WUHU216HW,2013-02-19 19:47:00,
2013-02-19 20:52:00,40.6,33.6,30.02,North,0,0.0,0.6,76,0.00,,,0.00,WUHU216HW,2013-02-19 19:52:00,
2013-02-19 20:57:00,40.4,33.4,30.02,NNE,23,0.0,1.1,76,0.00,,,0.00,WUHU216HW,2013-02-19 19:57:00,
2013-02-19 21:02:00,40.6,33.4,30.02,NNE,23,0.0,1.1,76,0.00,,,0.00,WUHU216HW,2013-02-19 20:02:00,
2013-02-19 21:07:00,40.4,33.4,30.02,NE,45,0.0,1.7,76,0.00,,,0.00,WUHU216HW,2013-02-19 20:07:00,
2013-02-19 21:12:00,40.2,33.2,30.02,NE,45,0.0,1.7,76,0.00,,,0.00,WUHU216HW,2013-02-19 20:12:00,
2013-02-19 21:17:00,40.1,33.0,30.02,NNE,23,0.0,0.0,76,0.00,,,0.00,WUHU216HW,2013-02-19 20:17:00,
2013-02-19 21:22:00,39.9,32.9,30.03,North,0,0.0,0.6,76,0.00,,,0.00,WUHU216HW,2013-02-19 20:22:00,
2013-02-19 21:27:00,39.7,32.7,30.03,NW,315,0.0,0.6,76,0.00,,,0.00,WUHU216HW,2013-02-19 20:27:00,
2013-02-19 21:32:00,39.7,32.7,30.03,SSW,203,2.9,2.9,76,0.00,,,0.00,WUHU216HW,2013-02-19 20:32:00,
2013-02-19 21:37:00,40.2,33.2,30.03,WSW,248,0.0,2.9,76,0.00,,,0.00,WUHU216HW,2013-02-19 20:37:00,
2013-02-19 21:42:00,40.4,33.4,30.03,WSW,248,0.6,2.9,76,0.00,,,0.00,WUHU216HW,2013-02-19 20:42:00,
2013-02-19 21:47:00,40.4,33.4,30.03,NNE,23,2.0,2.0,76,0.00,,,0.00,WUHU216HW,2013-02-19 20:47:00,
2013-02-19 21:52:00,40.1,33.0,30.03,NE,45,0.0,2.0,76,0.00,,,0.00,WUHU216HW,2013-02-19 20:52:00,
2013-02-19 21:57:00,39.9,32.9,30.04,North,0,0.0,0.0,76,0.00,,,0.00,WUHU216HW,2013-02-19 20:57:00,
2013-02-19 22:02:00,39.7,32.7,30.04,North,0,0.0,0.0,76,0.00,,,0.00,WUHU216HW,2013-02-19 21:02:00,
2013-02-19 22:07:00,39.5,32.5,30.03,North,0,0.0,0.0,76,0.00,,,0.00,WUHU216HW,2013-02-19 21:07:00,
2013-02-19 22:12:00,39.3,32.7,30.04,North,0,0.0,0.0,77,0.00,,,0.00,WUHU216HW,2013-02-19 21:12:00,
2013-02-19 22:17:00,39.3,32.4,30.04,NNE,23,0.0,0.0,76,0.00,,,0.00,WUHU216HW,2013-02-19 21:17:00,
2013-02-19 22:22:00,39.3,32.4,30.04,ENE,68,0.0,0.0,76,0.00,,,0.00,WUHU216HW,2013-02-19 21:22:00,
2013-02-19 22:27:00,39.3,32.4,30.03,ENE,68,0.0,0.0,76,0.00,,,0.00,WUHU216HW,2013-02-19 21:27:00,
2013-02-19 22:32:00,39.7,32.7,30.03,NE,45,0.0,0.0,76,0.00,,,0.00,WUHU216HW,2013-02-19 21:32:00,
2013-02-19 22:37:00,39.7,32.5,30.03,NE,45,0.0,0.0,76,0.00,,,0.00,WUHU216HW,2013-02-19 21:37:00,
2013-02-19 22:42:00,39.3,32.4,30.04,NE,45,0.0,0.0,76,0.00,,,0.00,WUHU216HW,2013-02-19 21:42:00,
2013-02-19 22:47:00,39.2,32.2,30.04,NE,45,0.0,0.0,76,0.00,,,0.00,WUHU216HW,2013-02-19 21:47:00,
2013-02-19 22:52:00,39.0,32.0,30.04,NE,45,0.0,0.0,76,0.00,,,0.00,WUHU216HW,2013-02-19 21:52:00,
2013-02-19 22:57:00,39.0,32.0,30.04,NE,45,0.0,0.0,76,0.00,,,0.00,WUHU216HW,2013-02-19 21:57:00,
2013-02-19 23:03:00,38.8,31.8,30.04,NE,45,0.0,0.0,76,0.00,,,0.00,WUHU216HW,2013-02-19 22:03:00,
2013-02-19 23:07:00,38.8,31.8,30.04,NNE,23,0.0,0.0,76,0.00,,,0.00,WUHU216HW,2013-02-19 22:07:00,
2013-02-19 23:13:00,38.4,31.2,30.04,NE,45,0.0,0.0,75,0.00,,,0.00,WUHU216HW,2013-02-19 22:13:00,
2013-02-19 23:18:00,38.4,31.2,30.04,NNE,23,0.0,0.0,75,0.00,,,0.00,WUHU216HW,2013-02-19 22:18:00,
2013-02-19 23:23:00,38.8,31.5,30.04,NE,45,0.0,0.0,75,0.00,,,0.00,WUHU216HW,2013-02-19 22:23:00,
2013-02-19 23:28:00,38.8,31.5,30.04,East,90,0.0,0.0,75,0.00,,,0.00,WUHU216HW,2013-02-19 22:28:00,
2013-02-19 23:33:00,38.8,31.5,30.04,ENE,68,0.0,0.0,75,0.00,,,0.00,WUHU216HW,2013-02-19 22:33:00,
2013-02-19 23:38:00,38.6,31.3,30.04,ENE,68,0.0,0.0,75,0.00,,,0.00,WUHU216HW,2013-02-19 22:38:00,
2013-02-19 23:43:00,38.3,31.0,30.04,ENE,68,0.0,0.0,75,0.00,,,0.00,WUHU216HW,2013-02-19 22:43:00,
2013-02-19 23:48:00,38.1,30.8,30.04,ENE,68,0.0,0.0,75,0.00,,,0.00,WUHU216HW,2013-02-19 22:48:00,
2013-02-19 23:53:00,38.1,30.8,30.04,ENE,68,0.0,0.0,75,0.00,,,0.00,WUHU216HW,2013-02-19 22:53:00,
2013-02-19 23:58:00,38.1,30.8,30.04,ENE,68,0.0,0.0,75,0.00,,,0.00,WUHU216HW,2013-02-19 22:58:00,